User: anonymous   Login
Location: The Top Of The Sky Mini Observatory
(41.4300°N, 81.2300°W)
Time: 21:52:05
(UTC-05:00)
Language:

Iridium 86 - Orbit

View from above orbital plane
View from above orbital plane
View from above satellite
View from above satellite

Ground track
Ground track

The orbit data is extracted from the following two-line orbital elements,

1 25528U 98066B   16340.36606179  .00000284  00000-0  94439-4 0  9990
2 25528  86.3972  70.8475 0001936  97.6577 262.4839 14.34217447951589
Epoch (UTC): 05 December 2016 08:47:07
Eccentricity: 0.0001936
inclination: 86.3972°
perigee height: 776 km
apogee height: 779 km
right ascension of ascending node: 70.8475°
argument of perigee: 97.6577°
revolutions per day: 14.34217447
mean anomaly at epoch: 262.4839°
orbit number at epoch: 95158

The dashed part of the orbit path shows where the satellite is in the earth's shadow,  

DLR